This demonstration page uses our WeatherBlox Daily Observations layout. Learn more.

Left ArrowRight Arrow

36.17497, -115.13722

Hourly Observations for July 5, 2017

Temp ( °F °C ) Dew Point ( °F °C ) Humidity (%) Winds ( mph kmh ) Pressure ( in mb ) Visibility ( mi km ) Precip ( " mm )
12:53 am 00:53 Clear 89 31.7 21 -6.1 8 8 N N/A 29.83 1010 10 16 N/A
1:53 am 01:53 Clear 85 29.4 27 -2.8 12 12 N N/A 29.84 1010 9 14 N/A
2:53 am 02:53 Clear 83 28.3 26 -3.3 12 12 WNW 3 6 29.85 1011 10 16 N/A
3:53 am 03:53 Clear 83 28.3 28 -2.2 13 13 N N/A 29.84 1011 10 16 N/A
4:53 am 04:53 Clear 81 27.2 26 -3.3 13 13 N N/A 29.86 1011 10 16 N/A
5:53 am 05:53 Sunny 81 27.2 25 -3.9 13 13 WNW 6 9 29.88 1012 10 16 N/A
6:53 am 06:53 Sunny 84 28.9 25 -3.9 11 11 N 7 11 29.90 1013 10 16 N/A
7:53 am 07:53 Sunny 90 32.2 25 -3.9 9 9 N N/A 29.92 1013 10 16 N/A
8:53 am 08:53 Sunny 93 33.9 22 -5.6 7 7 ESE 3 6 29.93 1014 10 16 N/A
9:53 am 09:53 Sunny 96 35.6 24 -4.4 7 7 SSE 5 7 29.93 1014 10 16 N/A
10:53 am 10:53 Sunny 101 38.3 31 -0.6 8 8 VRB 3 6 29.93 1013 10 16 N/A
11:53 am 11:53 Sunny 104 40 31 -0.6 8 8 SE 10 17 29.91 1013 10 16 N/A
12:53 pm 12:53 Sunny 107 41.7 27 -2.8 6 6 E 10 17 29.89 1012 10 16 N/A
1:53 pm 13:53 Sunny 110 43.3 23 -5 5 5 S 15 24 29.87 1012 10 16 N/A
2:53 pm 14:53 Sunny 110 43.3 24 -4.4 5 5 SW 13 20 29.85 1011 10 16 N/A
3:53 pm 15:53 Sunny 110 43.3 24 -4.4 5 5 S 12 19 29.84 1011 10 16 N/A
4:53 pm 16:53 Sunny 109 42.8 25 -3.9 5 5 W 8 13 29.83 1010 10 16 N/A
5:53 pm 17:53 Sunny 108 42.2 27 -2.8 6 6 W 8 13 29.82 1010 10 16 N/A
6:53 pm 18:53 Sunny 106 41.1 28 -2.2 6 6 W 13 20 29.83 1010 10 16 N/A
7:53 pm 19:53 Sunny 104 40 28 -2.2 7 7 W 14 22 29.84 1011 10 16 N/A
8:53 pm 20:53 Clear 102 38.9 32 undefined 9 9 W 12 19 29.85 1011 10 16 N/A
9:53 pm 21:53 Clear 101 38.3 33 0.6 9 9 W 13 20 29.87 1012 10 16 N/A
10:53 pm 22:53 Clear 99 37.2 32 undefined 9 9 N N/A 29.88 1012 10 16 N/A
11:53 pm 23:53 Clear 97 36.1 35 1.7 11 11 SW 6 9 29.88 1012 10 16 N/A

Powered by AerisWeather